Flag Weather past 2 weeks in Oberpullendorf, Burgenland, Austria

Now
38 °F

Chilly.


Feels Like: 36 °F
Forecast: 34 / 43 °F
Wind: 3 mph from East

Location: Eisenstadt

Current Time: Nov 23, 2014 at 3:41:44 AM

Latest Report: Nov 23, 2014 at 3:00 AM


Visibility: N/A

Pressure: 30.36 "Hg

Humidity: 90%

Dew point: 35 °F

Location of OberpullendorfLocation

Historic Weather in Oberpullendorf — Graph

°F

Oberpullendorf temperature yesterday

Maximum temperature yesterday: 44 °F (at 10:00 PM)
Minimum temperature yesterday: 39 °F (at 6:00 AM)
Average temperature yesterday: 41 °F

Past Weeks' High & Low Weather Summary

 TemperatureHumidityPressure
High65 °F (Nov 11, 1:00 PM)99% (Nov 16, 10:00 PM)30.36 "Hg (Nov 16, 10:00 PM)
Low36 °F (Nov 21, 7:00 PM)60% (Nov 19, 1:00 PM)29.68 "Hg (Nov 18, 2:00 PM)
Average49 °F86%29.96 "Hg
* Reported Nov 8 2:00 AM — Nov 23 2:00 AM, Oberpullendorf, Weather by CustomWeather, © 2014

Note: Actual official high and low records may vary slightly from our data, if they occured in-between our weather recording intervals... More about our weather records

Advertising

Oberpullendorf weather history for previous 24 hours

 ConditionsComfort  
Time TempWeatherWind HumidityBarometerVisibility
2:00 AM
Nov 23
38 °FChilly.3 mph90%30.36 "HgN/A
1:00 AM39 °FOvercast.3 mph90%30.34 "Hg5 mi
12:00 AM40 °FChilly.3 mph89%30.34 "HgN/A
11:00 PM
Nov 22
43 °FQuite cool.3 mph85%30.33 "HgN/A
10:00 PM44 °FOvercast.3 mph85%30.32 "Hg5 mi
9:00 PM43 °FQuite cool.2 mph90%30.32 "HgN/A
8:00 PM43 °FQuite cool.2 mph90%30.32 "HgN/A
7:00 PM43 °FOvercast.2 mph90%30.32 "Hg5 mi
6:00 PM43 °FQuite cool.2 mph89%30.32 "HgN/A
5:00 PM43 °FQuite cool.2 mph84%30.31 "HgN/A
4:00 PM43 °FOvercast.No wind84%30.30 "Hg5 mi
3:00 PM43 °FQuite cool.1 mph85%30.30 "HgN/A
2:00 PM43 °FQuite cool.2 mph84%30.30 "HgN/A
1:00 PM42 °FOvercast.2 mph86%30.30 "Hg5 mi
12:00 PM41 °FQuite cool.2 mph88%30.30 "HgN/A
11:00 AM41 °FQuite cool.3 mph90%30.32 "HgN/A
10:00 AM40 °FOvercast.2 mph92%30.31 "Hg5 mi
9:00 AM39 °FChilly.1 mph92%30.30 "HgN/A
8:00 AM39 °FChilly.1 mph92%30.29 "HgN/A
7:00 AM39 °FOvercast.2 mph92%30.27 "Hg5 mi
6:00 AM39 °FOvercast.2 mph91%30.26 "Hg6 mi
5:00 AM40 °FOvercast.2 mph87%30.26 "Hg6 mi
4:00 AM41 °FOvercast.2 mph85%30.27 "Hg6 mi
3:00 AM41 °FQuite cool.1 mph83%30.27 "HgN/A
Weather by CustomWeather, © 2014

See weather overviewHow to use our weather pages